[Iaude] MPEC D57: 2024 DL [a=1.51,e=0.36,i=4.9,H=25.8]
    mpec at cfa.harvard.edu 
    mpec at cfa.harvard.edu
       
    Sun Feb 18 20:57:51 EST 2024
    
    
  
M.P.E.C. 2024-D57                             Issued 2024 February 19, 01:56 UT
     The Minor Planet Electronic Circulars contain information on unusual
         minor planets, routine data on comets and natural satellites,
         and occasional editorial announcements.  They are published
    on behalf of Division F of the International Astronomical Union by the
          Minor Planet Center, Smithsonian Astrophysical Observatory,
                          Cambridge, MA 02138, U.S.A.
			  
             Prepared using the Tamkin Foundation Computer Network
                              MPC at CFA.HARVARD.EDU
            URL https://www.minorplanetcenter.net/    ISSN 1523-6714
                                    2024 DL                                     
Observations:
     K24D00L  C2024 02 05.37543708 42 28.149+37 37 23.24         21.78GVED057F52
     K24D00L  C2024 02 05.38650108 42 27.636+37 37 17.97         21.91GVED057F52
     K24D00L  C2024 02 05.39759308 42 27.129+37 37 12.67         21.39GVED057F52
     K24D00L*1C2024 02 18.11471908 46 56.327+30 59 34.58         19.71GVED057G96
     K24D00L 1C2024 02 18.12041608 46 56.438+30 59 11.18         20.19GVED057G96
     K24D00L 1C2024 02 18.12609008 46 56.550+30 58 47.06               VED057G96
     K24D00L 1C2024 02 18.13177508 46 56.654+30 58 25.00         19.98GVED057G96
     K24D00L KC2024 02 18.26834808 46 56.291+30 48 34.34         20.22GVED057I52
     K24D00L KC2024 02 18.27736308 46 56.197+30 47 53.38         19.85GVED057I52
     K24D00L KC2024 02 18.45153808 46 57.680+30 33 26.17         20.02GVED057I52
     K24D00L KC2024 02 18.45455408 46 57.810+30 33 10.08         20.06GVED057I52
     K24D00L KC2024 02 18.80169508 47 45.410+30 04 06.13         19.7 GVED057J95
     K24D00L KC2024 02 18.80795808 47 45.650+30 03 36.22         20.0 GVED057J95
     K24D00L KB2024 02 19.02759 08 47 48.85 +29 45 09.5                VED057204
     K24D00L KB2024 02 19.04368 08 47 49.28 +29 43 39.5          20.2 GVED057204
Observer details:
204 Schiaparelli Observatory.  Observer L. Buzzi.  0.84-m f/3.5 reflector +
    CMO.
F52 Pan-STARRS 2, Haleakala.  Observers J. Herman, T. Lowe, P. Minguez, A.
    Schultz, I. Smith.  Measurers K. Chambers, T. de Boer, J. Fairlamb, H.
    Gao, M. Huber, C.-C. Lin, E. Magnier, Y. Ramanjooloo, R. Wainscoat, R.
    Weryk.  1.8-m Ritchey-Chretien + CCD.
G96 Mt. Lemmon Survey.  Observers T. Beuden, G. J. Leonard.  Measurers T.
    Beuden, V. F. Carvajal, D. Fay, J. B. Fazekas, D. C. Fuls, A. R. Gibbs, A.
    D. Grauer, H. Groeller, J. K. Hogan, R. A. Kowalski, S. M. Larson, G. J.
    Leonard, D. Rankin, R. L. Seaman, F. C. Shelly, K. W. Wierzchos.  1.5-m
    reflector + 10K CCD.
I52 Steward Observatory, Mt. Lemmon Station.  Observer J. B. Fazekas.
    Measurers E. C. Beshore, D. Fay, J. B. Fazekas, D. C. Fuls, A. R. Gibbs,
    A. D. Grauer, H. Groeller, J. K. Hogan, R. A. Kowalski, S. M. Larson, G.
    J. Leonard, D. Rankin, R. L. Seaman, F. C. Shelly, K. W. Wierzchos.  1.0-m
    prime focus + CCD.
J95 Great Shefford.  Observer P. Birtwhistle.  0.41-m f/6.3 Schmidt-Cassegrain
    + CCD.
Orbital elements:
2024 DL                                                  Earth MOID = 0.0116 AU
Epoch 2024 Mar. 31.0 TT = JDT 2460400.5                 MPC                     
M   4.92662              (2000.0)            P               Q                  
n   0.53221725     Peri.  211.51002     -0.99500800     +0.09237168             
a   1.5080304      Node   333.71090     -0.06419221     -0.88220118             
e   0.3550394      Incl.    4.89200     -0.07640963     -0.46172346             
P   1.85           H   25.88          G   0.15           U   7                  
Residuals in seconds of arc
240205 F52  0.1-  0.2-    240218 G96  0.1+  1.2-    240218 I52  0.0   0.1-
240205 F52  0.1-  0.1-    240218 G96  0.2+  0.2-    240218 J95  0.3+  0.5+
240205 F52  0.1+  0.2+    240218 I52  0.0   0.3-    240218 J95  0.2-  0.3+
240218 G96  0.1+  0.4+    240218 I52  0.0   0.4+    240219 204  0.0   0.2-
240218 G96  0.0   0.1-    240218 I52  0.1-  0.1+    240219 204  0.1+  0.2-
Ephemeris:
2024 DL                  a,e,i = 1.51, 0.36, 5                   q = 0.9726
Date    TT    R. A. (2000) Decl.     Delta      r    Elong.  Phase     V
2024 01 20    08 43 05.0 +37 47 17   0.1736  1.1492   160.7    16.5    23.3
...
2024 02 04    08 42 30.5 +37 48 26   0.1022  1.0811   158.0    19.9    22.1
...
2024 02 12    08 42 55.3 +35 43 17   0.06865 1.0496   154.9    23.5    21.3
...
2024 02 18    08 46 37.9 +31 08 43   0.04502 1.0288   154.1    24.9    20.4
2024 02 19    08 47 53.0 +29 48 52   0.04120 1.0256   154.3    24.7    20.2
2024 02 20    08 49 25.5 +28 11 55   0.03743 1.0225   154.6    24.5    19.9
...
2024 02 26    09 11 45.8 +03 03 25   0.01679 1.0056   158.9    20.8    18.0
...
2024 03 05    18 12 11.6 -73 32 50   0.02220 0.9880    79.3    99.4    21.2
...
2024 03 20    20 12 54.4 -53 00 21   0.07653 0.9728    70.4   105.4    24.1
A. U. Tomatic                (C) Copyright 2024 MPC           M.P.E.C. 2024-D57
    
    
More information about the Iaude
mailing list